1491561780.68, -0.0282366098404, -0.00238929700289, 0.00576311574981, 0.5231499893, -0.0070752737702, 0.0637400098412, 0.849824240853
1491561780.71, -0.0396987696543, -0.00382044037619, 0.0141865396662, 0.524116038896, -0.00612799258742, 0.0676888027325, 0.848930533945
1491561780.74, -0.044620808153, -0.00520768833202, 0.0143532282171, 0.524737847459, -0.00396074004388, 0.0706759864837, 0.84831563048
1491561780.77, -0.0495439291211, -0.00689277809458, 0.0145704638102, 0.525863184568, -0.00138401788545, 0.073432374491, 0.847392283413
1491561780.8, -0.0544328708481, -0.00869872046841, 0.0147561400723, 0.527067652305, 0.00127523183053, 0.0761149471979, 0.846406863447
1491561780.83, -0.0704561790267, -0.0156145598746, 0.0219892468338, 0.524831882421, 0.0142126037639, 0.104462515278, 0.844652046698
1491561780.86, -0.0744147436636, -0.0175838301761, 0.0222207036632, 0.525843121385, 0.0169457116017, 0.107188240412, 0.843630568239
1491561780.89, -0.0780613582672, -0.0195089574724, 0.022447283657, 0.526891382484, 0.0197019956567, 0.109887710374, 0.842568687728
1491561780.92, -0.0901134298654, -0.0210321115181, 0.0273698037916, 0.527083809238, 0.0221698715833, 0.111382750266, 0.842190618433
1491561780.95, -0.0936990142996, -0.0227407130584, 0.0276077600996, 0.526756532675, 0.0238533444785, 0.114321039588, 0.841955624216
1491561780.98, -0.0966760702409, -0.0244887623113, 0.027716710119, 0.52623199889, 0.0253116317229, 0.117095236022, 0.841859792569
1491561781.01, -0.108709052304, -0.0278669403848, 0.0315509221992, 0.524923923406, 0.0262329648931, 0.11992535399, 0.842249734734
1491561781.01, -0.108709052304, -0.0278669403848, 0.0315509221992, 0.524923923406, 0.0262329648931, 0.11992535399, 0.842249734734
1491561781.04, -0.111085485033, -0.0297151503559, 0.0316283077493, 0.524481755965, 0.0275879169052, 0.122366810582, 0.842130725107
1491561781.07, -0.112893077431, -0.0315756854631, 0.0318023709071, 0.524753971099, 0.0293511679758, 0.124413881351, 0.841601428755
1491561781.1, -0.114148950512, -0.0332807179725, 0.0321434635589, 0.526003690373, 0.0318281386751, 0.126010722698, 0.840492941712
1491561781.13, -0.115099356717, -0.0345825054999, 0.0325070930849, 0.527213215307, 0.0341844711536, 0.127663188858, 0.839392493264
1491561781.16, -0.115763155515, -0.0354554320841, 0.0328132100759, 0.527941422363, 0.0361068291999, 0.129482071839, 0.838575306404
1491561781.19, -0.129205399991, -0.0385381094882, 0.0350929869338, 0.528526694579, 0.0376359542527, 0.13129807218, 0.837856720631
1491561781.22, -0.130085456856, -0.0389634904718, 0.0352033994707, 0.528439611588, 0.0386542820411, 0.133200956978, 0.837564880141
1491561781.25, -0.130686239954, -0.0391324699007, 0.0351105971839, 0.527372283757, 0.0387046569479, 0.135390457662, 0.837884149408
1491561781.28, -0.145696408575, -0.0433944197416, 0.0362924147242, 0.526691260239, 0.0383124764198, 0.137432832352, 0.837998023345
1491561781.31, -0.146310264672, -0.0441558128509, 0.0364564026153, 0.526894008691, 0.0388603239928, 0.138464521515, 0.837675447358
1491561781.34, -0.152222391054, -0.0466140175447, 0.0370956144743, 0.52708804155, 0.0390735488082, 0.139593166353, 0.837356078467
1491561781.37, -0.152647802536, -0.0475684597744, 0.0374049374136, 0.527232156889, 0.03921508045, 0.140403631308, 0.837123199131
1491561781.4, -0.15277995665, -0.0486339555264, 0.03787163535, 0.527803821593, 0.0395112143143, 0.14091827075, 0.836662435409
1491561781.43, -0.155816550534, -0.0505457861373, 0.0380915048312, 0.528797109928, 0.0396179561782, 0.140497868103, 0.836100701554
1491561781.46, -0.155683506127, -0.0515023752516, 0.0385873550372, 0.52922083251, 0.0395897004212, 0.141007915485, 0.83574800857
1491561781.49, -0.155463294992, -0.0522444476972, 0.0390846964977, 0.529100638541, 0.0390364439149, 0.141753831565, 0.835723950583
1491561781.52, -0.15792820399, -0.0536083206405, 0.0406602813137, 0.529147639971, 0.0381999314928, 0.142161514749, 0.835663595038
1491561781.55, -0.15740846946, -0.0542492169249, 0.0413775705122, 0.529120322182, 0.0375137095272, 0.142810669989, 0.835601291759
1491561781.58, -0.156620192227, -0.0550126128068, 0.0421957854218, 0.529532353067, 0.0370809259723, 0.143147388938, 0.835301931654
1491561781.61, -0.155591346855, -0.0559365158211, 0.043123559625, 0.530579102659, 0.0371351575332, 0.143094649123, 0.834644066227
1491561781.64, -0.156540435885, -0.0576243043248, 0.0446376611963, 0.531968413677, 0.0372124199983, 0.142756118122, 0.833813848162
1491561781.67, -0.155565313762, -0.0585686287281, 0.0455426712129, 0.532846012566, 0.0371163801116, 0.142575215713, 0.833288550914
1491561781.7, -0.154704442758, -0.0594026778353, 0.0463943754751, 0.533339392758, 0.0366765506469, 0.142521657951, 0.833001500467
1491561781.73, -0.155427450109, -0.0607107829123, 0.0479153491071, 0.534497796024, 0.0358546394552, 0.141839737164, 0.832410980128
1491561781.76, -0.154766685519, -0.0612851575379, 0.0487449852387, 0.534693640052, 0.0352488722652, 0.141973730273, 0.832288224238
1491561781.79, -0.154239041557, -0.0617588855621, 0.0495105685037, 0.534669170585, 0.0345329337304, 0.142249942316, 0.832286794575
1491561781.82, -0.153798661362, -0.062219923799, 0.0502251322405, 0.534729615127, 0.033927775912, 0.142484999083, 0.832232641612
1491561781.85, -0.15417361702, -0.0628661453236, 0.0503020034251, 0.53642373898, 0.0343248263451, 0.141169288369, 0.831349872542
1491561781.85, -0.15417361702, -0.0628661453236, 0.0503020034251, 0.53642373898, 0.0343248263451, 0.141169288369, 0.831349872542
1491561781.88, -0.153832538498, -0.0633129601511, 0.0509112903976, 0.536939178652, 0.0341970920488, 0.141165130023, 0.831023034211
1491561781.91, -0.153724583143, -0.0636317918849, 0.0514013376993, 0.537110924462, 0.0338438601312, 0.141321425311, 0.830899935433
1491561781.94, -0.153913181968, -0.0638206484579, 0.0517665212199, 0.536724459006, 0.0331101118756, 0.14179216343, 0.831099006128
1491561781.97, -0.154267155428, -0.063998877656, 0.0520698278513, 0.536389845832, 0.0324658687351, 0.142222962763, 0.831266822097
1491561782.0, -0.15482594011, -0.0641547108354, 0.0523235598311, 0.535824563027, 0.0316652086713, 0.142805687176, 0.831562317525
1491561782.03, -0.155876688069, -0.0638246019476, 0.05189380918, 0.535405593831, 0.031155627009, 0.143298704754, 0.831766588783
1491561782.06, -0.156875536828, -0.0642196533548, 0.0523078205391, 0.535557979208, 0.0310924125314, 0.143711709359, 0.831599577551
1491561782.09, -0.158332625204, -0.0646724445659, 0.0528404007087, 0.535898782654, 0.0312509503266, 0.144212404365, 0.831287348202
1491561782.12, -0.160454107502, -0.0650005102749, 0.0534296164838, 0.535769013245, 0.0310604387566, 0.14516467851, 0.831212385437
1491561782.15, -0.163621074945, -0.0646819214508, 0.0469937429253, 0.536309840009, 0.0313651541086, 0.145658020437, 0.830765745382
1491561782.18, -0.16687125491, -0.064819317973, 0.0477381688247, 0.536115329232, 0.0312928948148, 0.14710658944, 0.830638766155
1491561782.21, -0.168586269538, -0.0648127126686, 0.0477556098485, 0.536878296604, 0.0317058089475, 0.14846331293, 0.829888595553
1491561782.24, -0.173085122673, -0.0649193260322, 0.0486468309028, 0.537162451723, 0.0322377755126, 0.150316458003, 0.829350461953
1491561782.27, -0.175637521245, -0.0643418762972, 0.0479740108085, 0.538310887936, 0.0329161737178, 0.15229207352, 0.828217989288
1491561782.3, -0.181864813408, -0.0643635134862, 0.0487174131359, 0.538753999559, 0.0339524323758, 0.154815764666, 0.827419747955
1491561782.33, -0.189210094893, -0.0639861545679, 0.0488778941453, 0.53895739836, 0.0350270649522, 0.157903880417, 0.826658570404
1491561782.33, -0.189210094893, -0.0639861545679, 0.0488778941453, 0.53895739836, 0.0350270649522, 0.157903880417, 0.826658570404
1491561782.36, -0.198251847217, -0.0636092451068, 0.0493183250393, 0.53806493937, 0.0353130444342, 0.161848085012, 0.826464946196
1491561782.39, -0.208704870889, -0.0630727840061, 0.0496447048679, 0.536408328778, 0.0350648236131, 0.166513052866, 0.826625650575
1491561782.42, -0.220221586167, -0.062673196996, 0.0500369907855, 0.535409040902, 0.0355055278432, 0.171090474473, 0.826319893236
1491561782.45, -0.232742595819, -0.0625258803722, 0.0505422292321, 0.535530542628, 0.0370264020683, 0.175332488509, 0.825284558159
1491561782.48, -0.246393737107, -0.0624827624411, 0.0511035441819, 0.536026870023, 0.0390327776938, 0.179611042397, 0.8239487304
1491561782.51, -0.261113732095, -0.0621513085036, 0.051050333298, 0.536145525281, 0.0406252687345, 0.184312828809, 0.8227553369
1491561782.54, -0.277367864326, -0.0619654873069, 0.0515856865029, 0.535635755641, 0.0420827548351, 0.189468624289, 0.821842454144
1491561782.57, -0.294681671377, -0.0620051063359, 0.0523926731586, 0.53568312764, 0.0441959171001, 0.194451343455, 0.820535790019
1491561782.6, -0.312677333337, -0.0625552904141, 0.0536134765012, 0.537394287022, 0.0479948470531, 0.198507543047, 0.818228959574
1491561782.63, -0.330799601385, -0.0627105401772, 0.0549946346094, 0.540682083112, 0.0530340177512, 0.201517811455, 0.815009723641
1491561782.63, -0.330799601385, -0.0627105401772, 0.0549946346094, 0.540682083112, 0.0530340177512, 0.201517811455, 0.815009723641
1491561782.66, -0.350090118613, -0.0637791839808, 0.0566144980476, 0.543582736163, 0.0583661606523, 0.204145242779, 0.812056599066
1491561782.69, -0.370117294182, -0.0648467668175, 0.0582530808019, 0.54583655605, 0.0633540182688, 0.206524266892, 0.809565593163
1491561782.72, -0.390970389411, -0.065803606949, 0.0596723444378, 0.546466172238, 0.0670596821445, 0.209211776418, 0.80815107142
1491561782.75, -0.41250668177, -0.0668408120542, 0.0608736216796, 0.545639244676, 0.0695405652882, 0.21230811806, 0.807692507985
1491561782.78, -0.433817032884, -0.0695493705192, 0.0621429558051, 0.545963534306, 0.0738417676186, 0.214995887042, 0.806379551525
1491561782.81, -0.455843344281, -0.0725080770891, 0.0635145941882, 0.547351651501, 0.0787833685532, 0.216602707878, 0.804538760644
1491561782.84, -0.47869795766, -0.0761290719924, 0.0646950116667, 0.547874043203, 0.0830067866013, 0.218761181147, 0.803173363469
1491561782.87, -0.50288635652, -0.0794089179734, 0.065667858166, 0.545667094616, 0.0846565581107, 0.222238438728, 0.803548856868
1491561782.87, -0.50288635652, -0.0794089179734, 0.065667858166, 0.545667094616, 0.0846565581107, 0.222238438728, 0.803548856868
1491561782.9, -0.527584054219, -0.0837968500739, 0.0662434038897, 0.5422971834, 0.0848826315668, 0.227202878962, 0.804417525621
1491561782.93, -0.552153792298, -0.0892154293487, 0.0669254170863, 0.540274549601, 0.086248432556, 0.231720621509, 0.804344560809
1491561782.96, -0.576702653211, -0.0949713760428, 0.0661933903382, 0.539827027867, 0.0892447289271, 0.236425623149, 0.802947746159
1491561782.99, -0.600438623479, -0.102804776457, 0.0666685609144, 0.539822586708, 0.0922311124424, 0.240049725739, 0.801536727761
1491561783.02, -0.623696756203, -0.111845782914, 0.0670008034911, 0.540004518307, 0.0951691724292, 0.243305607449, 0.800087701575
1491561783.05, -0.646580284063, -0.122010882548, 0.0666457177829, 0.541336310479, 0.0989984247767, 0.24654891574, 0.797726734538
1491561783.08, -0.668842702982, -0.133906831751, 0.0668362012977, 0.543144917718, 0.103075279248, 0.248313764973, 0.795430298197
1491561783.11, -0.691107346888, -0.147221154189, 0.066898429869, 0.544778477192, 0.106822285376, 0.250070385297, 0.793265537215
1491561783.14, -0.71514993716, -0.159205346516, 0.0673082638321, 0.546002907142, 0.110108512665, 0.252330610073, 0.791256092584
1491561783.14, -0.71514993716, -0.159205346516, 0.0673082638321, 0.546002907142, 0.110108512665, 0.252330610073, 0.791256092584
1491561783.17, -0.737834642647, -0.175288427017, 0.0674786305239, 0.547453975662, 0.113240487102, 0.25396135214, 0.789287253306
1491561783.2, -0.760462481301, -0.193077997439, 0.0677629347408, 0.549415114573, 0.116672376616, 0.255036441362, 0.787074965928
1491561783.23, -0.782977338337, -0.212516028354, 0.0680918207139, 0.551458765684, 0.119975053072, 0.255573442749, 0.784972249033
1491561783.26, -0.801805411835, -0.236218063892, 0.0664226087649, 0.554496922551, 0.123809883435, 0.255327132205, 0.78231216992
1491561783.29, -0.823416830804, -0.258854619573, 0.0668870389419, 0.557073147147, 0.127044494298, 0.253856061694, 0.780439815192
1491561783.32, -0.844932635918, -0.282606547631, 0.0672358203511, 0.55844485872, 0.128674540261, 0.252240358409, 0.779715976524
1491561783.35, -0.86671831345, -0.307018862871, 0.0672024558007, 0.556440861917, 0.126245334624, 0.25189763208, 0.781654185447
1491561783.38, -0.887402203981, -0.331822610051, 0.0684268240439, 0.552254957359, 0.121398848663, 0.251715560881, 0.785440041013
1491561783.41, -0.908426571428, -0.357657387351, 0.0685016328744, 0.548011798755, 0.116287531919, 0.250850503536, 0.789451900511
1491561783.44, -0.929145253095, -0.383995459312, 0.0691550905736, 0.544622872283, 0.112027841869, 0.248658606565, 0.793098094194
1491561783.47, -0.94762829945, -0.409512078537, 0.0697887592158, 0.542334321978, 0.109966990639, 0.245603288702, 0.795901858745
1491561783.5, -0.968243966229, -0.435555713358, 0.0719745636483, 0.540798697469, 0.10759318054, 0.241151956469, 0.798627704383
1491561783.53, -0.989142609254, -0.460851644982, 0.0760282939978, 0.539273790389, 0.105090728066, 0.236597600465, 0.801349669825
1491561783.53, -0.989142609254, -0.460851644982, 0.0760282939978, 0.539273790389, 0.105090728066, 0.236597600465, 0.801349669825
1491561783.56, -1.01065511325, -0.485439686265, 0.0792881898665, 0.53741365747, 0.102121470306, 0.231870375014, 0.804359307311
1491561783.59, -1.03297104982, -0.508662496566, 0.0824511268677, 0.533749177409, 0.0972202423392, 0.228342640711, 0.808405639842
1491561783.62, -1.05610045479, -0.530574493557, 0.0852304055534, 0.528392785186, 0.0907116816403, 0.226019474721, 0.813318911882
1491561783.65, -1.07802329096, -0.552665871194, 0.0872440602259, 0.520940048802, 0.0822794962951, 0.225267237505, 0.819210730979
1491561783.68, -1.1028824544, -0.573266913065, 0.0883673542879, 0.513246702241, 0.0738920881385, 0.224501863444, 0.825055571013
1491561783.71, -1.12835999007, -0.593832202845, 0.0886254914223, 0.506490659337, 0.0665083862324, 0.223257732097, 0.830180601812
1491561783.74, -1.15428214595, -0.614512956478, 0.087933552003, 0.501091915372, 0.0604980374446, 0.221259268762, 0.834440660444
1491561783.77, -1.17511169615, -0.641911056664, 0.0870290809343, 0.496993969562, 0.0556537695215, 0.219252182388, 0.837751832391
1491561783.8, -1.20148276633, -0.663301445529, 0.0850447879753, 0.494713000201, 0.052486573237, 0.215840706092, 0.840188667298
1491561783.83, -1.22811467889, -0.685055034857, 0.0829467739454, 0.49449273213, 0.0511757853124, 0.211682334326, 0.841456217638
1491561783.86, -1.25751668372, -0.707179539834, 0.0821804429561, 0.496030422082, 0.0523265167263, 0.207709659384, 0.841470411491
1491561783.89, -1.28469187605, -0.72949689766, 0.0811929926594, 0.500593535832, 0.0551636940242, 0.201478647582, 0.840100847109
1491561783.92, -1.31220530783, -0.751717665543, 0.0808589103061, 0.506090254577, 0.0588476595132, 0.194833114526, 0.838122702637
1491561783.95, -1.34157318156, -0.773746999664, 0.0836424610048, 0.509917967225, 0.0625092206552, 0.190147806199, 0.836612261344
1491561783.98, -1.37048526102, -0.794634421487, 0.0842629171283, 0.511566086807, 0.0632465905518, 0.185400274863, 0.836616247567
1491561784.01, -1.40021351723, -0.814412721035, 0.0852112592477, 0.509153890581, 0.0608818004398, 0.182764293679, 0.838840232128
1491561784.04, -1.43172277622, -0.833526396542, 0.0882138196208, 0.50265437662, 0.0553725243914, 0.181023400481, 0.84350636612
1491561784.04, -1.43172277622, -0.833526396542, 0.0882138196208, 0.50265437662, 0.0553725243914, 0.181023400481, 0.84350636612
1491561784.07, -1.46194227775, -0.852458550578, 0.0907235933912, 0.497333773707, 0.0514005348861, 0.178906211349, 0.847354512636
1491561784.1, -1.49164093279, -0.871640386969, 0.0936669358346, 0.493415717991, 0.0489974013638, 0.175551224197, 0.850483363495
1491561784.13, -1.52088644976, -0.890967955975, 0.0967928119109, 0.490562669416, 0.0477148086942, 0.171698867242, 0.852989486098
1491561784.16, -1.55144202291, -0.91205611737, 0.103111709253, 0.48894897313, 0.0471055021326, 0.167143716885, 0.854852590363
1491561784.19, -1.58017694185, -0.931892843632, 0.107441959676, 0.490036384689, 0.0488253102327, 0.162156017352, 0.855094063129
1491561784.22, -1.60993505144, -0.953056085049, 0.110189115184, 0.494106559584, 0.0520333585952, 0.155615911684, 0.853776859256
1491561784.22, -1.60993505144, -0.953056085049, 0.110189115184, 0.494106559584, 0.0520333585952, 0.155615911684, 0.853776859256
1491561784.25, -1.6382281206, -0.974032033139, 0.114168483986, 0.499631451732, 0.056449165767, 0.148741650946, 0.851503273862
1491561784.28, -1.66670038345, -0.99555709101, 0.117117742056, 0.504866845796, 0.0602259680439, 0.142241506103, 0.849264184297
1491561784.31, -1.69539232391, -1.01770348326, 0.119267883521, 0.510439411754, 0.0638161735909, 0.135742299513, 0.846730849231
1491561784.34, -1.72385711116, -1.04244932322, 0.119818509696, 0.51623124576, 0.0667485648449, 0.12887789676, 0.844061856572
1491561784.34, -1.72385711116, -1.04244932322, 0.119818509696, 0.51623124576, 0.0667485648449, 0.12887789676, 0.844061856572
1491561784.37, -1.75342528475, -1.06604551974, 0.120895349746, 0.52236402746, 0.0697278790994, 0.12209913201, 0.841050324091
1491561784.4, -1.78361522504, -1.09010507646, 0.121923417579, 0.528153961919, 0.0719472662259, 0.115550107773, 0.83816773738
1491561784.43, -1.81448213146, -1.11443509675, 0.123203477346, 0.533548797066, 0.0734527185843, 0.109449686964, 0.835434704394
1491561784.46, -1.84335280151, -1.13635542686, 0.122366506831, 0.537389658875, 0.0722716444543, 0.103611293356, 0.833818843534
1491561784.49, -1.87543614599, -1.16016116114, 0.124107667232, 0.540069573626, 0.0708355968422, 0.0995312878926, 0.832706849134
1491561784.52, -1.90816334246, -1.18313435444, 0.126592747709, 0.541587584346, 0.0680456051499, 0.0963016380077, 0.832333273767
1491561784.55, -1.94055211768, -1.20623831185, 0.131337037646, 0.54172805231, 0.0636938085663, 0.0939229135764, 0.83285791249
1491561784.58, -1.97497711992, -1.22618418152, 0.136879044306, 0.540727933281, 0.0580780362064, 0.0932727211007, 0.833990673436
1491561784.61, -2.01013754024, -1.24443962177, 0.143584513641, 0.539049785655, 0.0515686642951, 0.0935014584573, 0.835477994154
1491561784.64, -2.04573657721, -1.26131643478, 0.150704873582, 0.536839970533, 0.0442960184026, 0.0943355600862, 0.837222497843
1491561784.67, -2.07734409901, -1.27735794093, 0.160705377254, 0.534623413664, 0.0371565179446, 0.0951989540179, 0.838888763717
1491561784.67, -2.07734409901, -1.27735794093, 0.160705377254, 0.534623413664, 0.0371565179446, 0.0951989540179, 0.838888763717
1491561784.7, -2.11276061843, -1.29280656074, 0.166707507325, 0.532558100178, 0.0296125087996, 0.095804304342, 0.840432331914
1491561784.73, -2.14803795089, -1.30843064799, 0.171439277205, 0.532306421487, 0.0232964382687, 0.0952378107727, 0.840854867981
1491561784.76, -2.18012365136, -1.32184823872, 0.173499000383, 0.534433394976, 0.0193120730667, 0.0934146900942, 0.839810505914
1491561784.76, -2.18012365136, -1.32184823872, 0.173499000383, 0.534433394976, 0.0193120730667, 0.0934146900942, 0.839810505914
1491561784.79, -2.21524569304, -1.33843396258, 0.174716792297, 0.53815872356, 0.0159956169916, 0.0903216445015, 0.837837292694
1491561784.82, -2.2506668059, -1.35545694241, 0.174450960385, 0.542930648608, 0.0135179438439, 0.0864349278733, 0.835208105349
1491561784.85, -2.2849839149, -1.37197368506, 0.169985462844, 0.549353122798, 0.0120457919155, 0.0815819533434, 0.831510932134
1491561784.88, -2.32103331984, -1.38951798697, 0.168598437464, 0.557929882573, 0.0120954850256, 0.0760993407556, 0.8263031137
1491561784.91, -2.36758868791, -1.40922461225, 0.167365339716, 0.567103699996, 0.0122126255621, 0.0705018221083, 0.820532594299
1491561784.91, -2.36758868791, -1.40922461225, 0.167365339716, 0.567103699996, 0.0122126255621, 0.0705018221083, 0.820532594299
1491561784.94, -2.4056055475, -1.42537944069, 0.167166834943, 0.576600751344, 0.0123424432601, 0.0659138086655, 0.814269370338
1491561784.97, -2.44489954245, -1.44020919277, 0.168071012046, 0.584205707363, 0.0108171762535, 0.062915168467, 0.809091071363
1491561785.0, -2.48542644729, -1.45365474595, 0.170321303691, 0.589967142591, 0.00759601212228, 0.061245111379, 0.805065281574
1491561785.03, -2.52702189742, -1.46785963701, 0.175376588723, 0.594567609114, 0.00326890507838, 0.0602560439838, 0.801777950318
1491561785.06, -2.56960972642, -1.47887736281, 0.181316441264, 0.597276684708, -0.00263149515506, 0.060960868629, 0.799710828758
1491561785.09, -2.61289839309, -1.48870561157, 0.188977671764, 0.597805226878, -0.0102856620549, 0.0634599446724, 0.799059416624
1491561785.12, -2.65634024106, -1.49813970005, 0.197926626624, 0.59907798711, -0.0174872043979, 0.0659987400347, 0.797774359927
1491561785.15, -2.69676093094, -1.50879340114, 0.209450908349, 0.601202505107, -0.0242329318307, 0.0686092535738, 0.795777031078
1491561785.18, -2.73999718589, -1.51794407669, 0.218448539826, 0.601869417429, -0.0322340205217, 0.0720576361189, 0.794683502636
1491561785.21, -2.78318570047, -1.52701599713, 0.226650577313, 0.600963099895, -0.0415003133291, 0.0764102095108, 0.794532917154
1491561785.24, -2.82355403274, -1.53557368766, 0.234193595277, 0.600645553611, -0.0504107197729, 0.0807658432743, 0.793826528166
1491561785.27, -2.86668683836, -1.54604603846, 0.241563971189, 0.602691189293, -0.0577444740258, 0.0850248609047, 0.791327794973
1491561785.3, -2.90733153221, -1.55498810489, 0.255490461149, 0.606610434971, -0.0633203258972, 0.0888880647388, 0.787472684263
1491561785.3, -2.90733153221, -1.55498810489, 0.255490461149, 0.606610434971, -0.0633203258972, 0.0888880647388, 0.787472684263
1491561785.33, -2.95130747524, -1.56714475904, 0.261032044293, 0.611388137174, -0.0684145321112, 0.0931726386361, 0.782842804737
1491561785.36, -2.99601472234, -1.58012170829, 0.265044825823, 0.616102056962, -0.0732128952139, 0.0978442712384, 0.778128926314
1491561785.39, -3.04145322325, -1.59381746154, 0.26757395665, 0.620431235682, -0.0779905631391, 0.102762524647, 0.773577673786
1491561785.42, -3.0876066997, -1.60822112677, 0.268720772566, 0.624511986259, -0.0825205103463, 0.107739322459, 0.769134177363
1491561785.45, -3.13348877512, -1.62321527232, 0.272834680114, 0.627675094054, -0.0870400767943, 0.112914319822, 0.765309321591
1491561785.48, -3.18077305295, -1.63844266888, 0.272396545669, 0.62966492283, -0.0919360090661, 0.118457881378, 0.762258214474
1491561785.51, -3.22842854762, -1.65412326192, 0.271714991291, 0.630996810509, -0.0966933139729, 0.124105691399, 0.759665193044
1491561785.54, -3.27381456086, -1.66889319781, 0.273214804749, 0.632230810886, -0.100942804185, 0.129690046093, 0.75714941986
1491561785.57, -3.32155899362, -1.68508977519, 0.273258313201, 0.632722670133, -0.10532008683, 0.13527776765, 0.755161987649
1491561785.6, -3.36978944423, -1.70107474413, 0.274219840601, 0.631406116731, -0.110989488329, 0.141227565323, 0.754362263125
1491561785.63, -3.41879209638, -1.71363893126, 0.273498800379, 0.629075610781, -0.117595183881, 0.147131962262, 0.75417997476
1491561785.66, -3.46770432817, -1.72901301669, 0.276566234756, 0.627125063924, -0.123405859662, 0.153255915806, 0.753656269309
1491561785.69, -3.51472275318, -1.74489649898, 0.28099061473, 0.62708871818, -0.127467946104, 0.158638982996, 0.751894497467
1491561785.69, -3.51472275318, -1.74489649898, 0.28099061473, 0.62708871818, -0.127467946104, 0.158638982996, 0.751894497467
1491561785.72, -3.56223559941, -1.76012284166, 0.284941178147, 0.628579781655, -0.129741137733, 0.163195510581, 0.749280935698
1491561785.75, -3.60861398223, -1.77506316325, 0.288049315174, 0.630931601799, -0.130673173873, 0.16644309514, 0.746422488649
1491561785.78, -3.65396446749, -1.78948626218, 0.289570730291, 0.632750748904, -0.131345620826, 0.168454524574, 0.744310345758